Punta Gorda, FL

10:57 AM EDT on July 22, 2017 (GMT -0400)
Charlotte County

Weather History for KPGD - November, 2011

Change the Weather History Date:

Tuesday, November 22, 2011

  Actual Average Record
Temperature  
Mean Temperature 76 °F -  
Max Temperature 84 °F 77 °F 86 °F (1998)
Min Temperature 69 °F 55 °F 39 °F (2000)
Cooling Degree Days 12    
Growing Degree Days 26 (Base 50)    
Moisture  
Dew Point 67 °F    
Average Humidity 79    
Maximum Humidity 96    
Minimum Humidity 51    
Precipitation  
Precipitation 0.01 in - - ()
Sea Level Pressure  
Sea Level Pressure 30.15 in    
Wind  
Wind Speed 4 mph (SE)    
Max Wind Speed 12 mph    
Max Gust Speed -    
Visibility 8 miles    
Events      
Averages and records for this station are not official NWS values.
T = Trace of Precipitation, MM = Missing Value Source: NWS Daily Summary

Daily Weather History Graph

Daily Weather History Graph

Search for Another Location

Airport or City:

Trip Planner

Search our weather history database for the weather conditions in past years. The results will help you decide how hot, cold, wet, or windy it might be!

Date:

Astronomy

Nov. 22, 2011 Rise Set
Actual Time 6:52 AM EST 5:35 PM EST
Civil Twilight 6:27 AM EST 5:59 PM EST
Nautical Twilight 5:59 AM EST 6:28 PM EST
Astronomical Twilight 5:31 AM EST 6:56 PM EST
Moon 3:53 AM EST 3:25 PM EST
Length of Visible Light 11h 31m
Length of Day
10h 42m
Waning Crescent, 9% of the Moon is Illuminated
Nov 22
Waning Crescent
Nov 25
New
Dec 2
First Quarter
Dec 10
Full
Dec 17
Last Quarter

Hourly Weather History & Observations

Time (EST) Temp. Heat Index Dew Point Humidity Pressure Visibility Wind Dir Wind Speed Gust Speed Precip Events Conditions
12:53 AM 73.0 °F - 71.1 °F 93% 30.18 in 10.0 mi ENE 3.5 mph - N/A   Overcast
1:53 AM 73.0 °F - 71.1 °F 93% 30.16 in 10.0 mi Calm Calm - N/A   Overcast
2:53 AM 72.0 °F - 70.0 °F 93% 30.15 in 8.0 mi ENE 3.5 mph - N/A   Overcast
3:53 AM 71.1 °F - 70.0 °F 96% 30.14 in 6.0 mi Calm Calm - 0.01 in   Overcast
4:53 AM 71.1 °F - 69.1 °F 93% 30.14 in 7.0 mi East 3.5 mph - N/A   Mostly Cloudy
5:53 AM 70.0 °F - 68.0 °F 93% 30.14 in 6.0 mi SE 3.5 mph - N/A   Partly Cloudy
6:19 AM 69.8 °F - 68.0 °F 94% 30.15 in 1.8 mi Calm Calm - N/A   Clear
6:51 AM 69.8 °F - 68.0 °F 94% 30.16 in 0.8 mi Calm Calm - N/A   Mostly Cloudy
6:53 AM 69.1 °F - 68.0 °F 96% 30.16 in 1.0 mi Calm Calm - N/A   Overcast
7:53 AM 72.0 °F - 70.0 °F 93% 30.18 in 10.0 mi East 4.6 mph - N/A   Overcast
8:53 AM 75.9 °F - 70.0 °F 82% 30.19 in 10.0 mi ESE 8.1 mph - N/A   Partly Cloudy
9:53 AM 78.1 °F - 69.1 °F 74% 30.20 in 10.0 mi SE 11.5 mph - N/A   Clear
10:53 AM 81.0 °F 83.3 °F 66.9 °F 62% 30.19 in 10.0 mi SSE 9.2 mph - N/A   Scattered Clouds
11:53 AM 81.0 °F 83.3 °F 66.9 °F 62% 30.17 in 10.0 mi SSE 4.6 mph - N/A   Mostly Cloudy
12:53 PM 81.0 °F 83.0 °F 66.0 °F 60% 30.15 in 10.0 mi SE 5.8 mph - N/A   Overcast
1:53 PM 82.9 °F 84.6 °F 64.9 °F 54% 30.12 in 10.0 mi SE 5.8 mph - N/A   Clear
2:53 PM 84.0 °F 85.4 °F 64.0 °F 51% 30.10 in 10.0 mi East 9.2 mph - N/A   Scattered Clouds
3:53 PM 82.9 °F 84.0 °F 63.0 °F 51% 30.11 in 10.0 mi SE 5.8 mph - N/A   Clear
4:53 PM 82.0 °F 83.1 °F 63.0 °F 52% 30.11 in 10.0 mi SE 6.9 mph - N/A   Clear
5:53 PM 77.0 °F - 64.9 °F 66% 30.12 in 10.0 mi West 6.9 mph - N/A   Scattered Clouds
8:53 PM 69.1 °F - 66.0 °F 90% 30.16 in 10.0 mi ESE 4.6 mph - N/A   Clear
9:53 PM 71.1 °F - 64.9 °F 81% 30.17 in 10.0 mi SE 8.1 mph - N/A   Clear
10:53 PM 70.0 °F - 64.0 °F 81% 30.16 in 10.0 mi SE 8.1 mph - N/A   Clear
11:53 PM 70.0 °F - 64.0 °F 81% 30.16 in 10.0 mi SSE 5.8 mph - N/A   Clear